Printer-friendly version

IAU Minor Planet Center

Minor Planet Center

MPEC 2006-Y17 : 2006 YE

The following Minor Planet Electronic Circular may be linked-to from your own Web pages, but must not otherwise be redistributed electronically.


Read MPEC 2006-Y16 Read MPEC 2006-Y18


M.P.E.C. 2006-Y17                                Issued 2006 Dec. 17, 15:23 UT

     The Minor Planet Electronic Circulars contain information on unusual
         minor planets and routine data on comets.  They are published
   on behalf of Commission 20 of the International Astronomical Union by the
          Minor Planet Center, Smithsonian Astrophysical Observatory,
                          Cambridge, MA 02138, U.S.A.

             Prepared using the Tamkin Foundation Computer Network

                              MPC@CFA.HARVARD.EDU
          URL http://cfa-www.harvard.edu/iau/mpc.html  ISSN 1523-6714

                                    2006 YE

Observations:
     K06Y00E  C2006 12 16.38443 07 58 14.02 +15 56 56.4                 EY017G96
     K06Y00E  C2006 12 16.38963 07 58 33.56 +15 55 46.5                 EY017G96
     K06Y00E  C2006 12 16.39480 07 58 52.68 +15 54 38.5                 EY017G96
     K06Y00E  C2006 12 16.39993 07 59 12.03 +15 53 28.6          18.7 V EY017G96
     K06Y00E  C2006 12 16.42399 08 00 42.16 +15 47 59.8                 EY017G96
     K06Y00E  C2006 12 16.42455 08 00 44.23 +15 47 52.6                 EY017G96
     K06Y00E  C2006 12 16.42508 08 00 46.23 +15 47 44.7                 EY017G96
     K06Y00E* C2006 12 16.42580 08 00 48.92 +15 47 35.1          20.2 V EY017G96
     K06Y00E  C2006 12 16.42605 08 00 49.82 +15 47 32.1          19.3 V EY017G96
     K06Y00E  C2006 12 16.42629 08 00 50.76 +15 47 28.6          19.1 V EY017G96
     K06Y00E  C2006 12 16.42653 08 00 51.69 +15 47 25.1          19.0 V EY017G96
     K06Y00E  C2006 12 16.46857 08 03 29.15 +15 37 36.8          19.3 V EY017G96
     K06Y00E  C2006 12 16.46881 08 03 30.08 +15 37 33.1          19.5 V EY017G96
     K06Y00E  C2006 12 16.46930 08 03 31.86 +15 37 26.0          18.9 V EY017G96
     K06Y00E  C2006 12 16.50906 08 06 01.44 +15 27 54.3          19.6 V EY017G96
     K06Y00E  C2006 12 16.50981 08 06 04.25 +15 27 43.0          19.4 V EY017G96
     K06Y00E  C2006 12 16.54586 08 08 20.76 +15 18 52.8          19.3 V EY017G96
     K06Y00E  C2006 12 16.54611 08 08 21.73 +15 18 48.8          19.5 V EY017G96
     K06Y00E  C2006 12 16.54637 08 08 22.74 +15 18 44.8          19.0 V EY017G96
     K06Y00E  C2006 12 16.54664 08 08 23.74 +15 18 41.1          19.4 V EY017G96
     K06Y00E  C2006 12 17.04617308 41 24.37 +13 10 52.9          19.1 R EY017J95
     K06Y00E FC2006 12 17.04863808 41 33.35 +13 10 13.7          20.0 R EY017J95
     K06Y00E  C2006 12 17.05111808 41 42.27 +13 09 37.4          19.1 R EY017J95
     K06Y00E  C2006 12 17.05388908 41 52.30 +13 08 53.4          19.0 R EY017J95
     K06Y00E  C2006 12 17.36536 09 01 05.26 +11 49 12.1          20.3 V EY017G96
     K06Y00E  C2006 12 17.36561 09 01 06.13 +11 49 08.4          19.6 V EY017G96
     K06Y00E  C2006 12 17.36585 09 01 06.96 +11 49 04.3          19.2 V EY017G96
     K06Y00E  C2006 12 17.36612 09 01 07.86 +11 49 00.0          20.4 V EY017G96

Observer details:
G96 Mt. Lemmon Survey.  Observer E. J. Christensen.  Measurers E. C. Beshore,
    E. J. Christensen, G. J. Garradd, A. R. Gibbs, A. D. Grauer, R. E. Hill,
    R. A. Kowalski, S. M. Larson, R. H. McNaught.  1.5-m reflector + CCD.
J95 Great Shefford.  Observer P. Birtwhistle.  0.40-m f/6.0 Schmidt-Cassegrain
    + CCD.

Orbital elements:
2006 YE                                                  Earth MOID = 0.0018 AU
Epoch 2007 Apr. 10.0 TT = JDT 2454200.5                 MPC
M  42.11236              (2000.0)            P               Q
n   0.42675890     Peri.  210.36508     -0.23984744     -0.97079587
a   1.7472203      Node   253.51290     +0.89181884     -0.21815226
e   0.4403014      Incl.    0.31950     +0.38357836     -0.09982473
P   2.31           H   27.3           G   0.15           U   5
Residuals in seconds of arc
061216 G96  0.6+  0.3-    061216 G96  0.8+  0.0     061217 J95  0.6-  0.4+
061216 G96  1.3+  0.6-    061216 G96  0.0   0.3+    061217 J95  0.1+  0.8-
061216 G96  2.3-  0.9+    061216 G96  0.4+  0.0     061217 J95  0.8-  1.1+
061216 G96  0.3-  0.2+    061216 G96  0.4-  0.1-    061217 J95  0.7-  0.1-
061216 G96  0.5+  0.3-    061216 G96  0.6-  0.3+    061217 G96  0.9-  0.0
061216 G96  0.1+  0.2+    061216 G96  0.9-  0.1-    061217 G96  0.5-  0.3+
061216 G96  0.4+  0.4-    061216 G96  1.1-  0.2+    061217 G96  0.3-  0.0
061216 G96  0.3+  0.0     061216 G96  0.8-  0.1-    061217 G96  0.6-  0.1-
061216 G96  0.2-  0.4+    061216 G96  0.5-  0.2-
061216 G96  0.4+  0.2+    061216 G96  0.9-  0.1+

Ephemeris:
2006 YE                  a,e,i = 1.75, 0.44, 0                   q = 0.9779
Date    TT    R. A. (2000) Decl.     Delta      r     Elong.  Phase     V
2006 12 11    04 01.04   +19 35.8    0.0243   1.008   163.4    16.2    20.1
2006 12 12    04 24.11   +20 07.4    0.0212   1.005   167.8    12.0    19.7
2006 12 13    04 54.85   +20 31.9    0.0184   1.003   173.7     6.2    19.1
2006 12 14    05 35.89   +20 33.0    0.0160   1.000   176.2     3.7    18.7
2006 12 15    06 29.11   +19 40.6    0.0142   0.998   165.5    14.3    18.9
2006 12 16    07 32.54   +17 20.1    0.0132   0.996   151.4    28.3    19.1
2006 12 17    08 38.21   +13 30.1    0.0132   0.994   136.2    43.3    19.6
2006 12 18    09 36.47   +09 04.3    0.0143   0.992   122.3    57.0    20.1
2006 12 19    10 22.76   +05 02.3    0.0162   0.990   111.1    68.0    20.7
2006 12 20    10 57.75   +01 48.6    0.0186   0.988   102.8    76.1    21.3
2006 12 21    11 24.00   -00 39.0    0.0214   0.987    96.9    81.9    21.8

Kyle E. Smalley              (C) Copyright 2006 MPC           M.P.E.C. 2006-Y17

Read MPEC 2006-Y16 Read MPEC 2006-Y18


Our Web policy. Index to the CBAT/MPC/ICQ pages.


Valid HTML 4.01!